Weather History for KVTN - May, 2012

Change the Weather History Date:

Tuesday, May 22, 2012

  Actual Average Record
Temperature  
Mean Temperature 76 °F 60 °F  
Max Temperature 94 °F 73 °F 95 °F (2010)
Min Temperature 58 °F 47 °F 26 °F (1963)
Degree Days  
Heating Degree Days 0 7  
Month to date heating degree days 137 213  
Since 1 July heating degree days 5786 6896  
Cooling Degree Days 11 1  
Month to date cooling degree days 37 19  
Year to date cooling degree days 58 23  
Growing Degree Days 25 (Base 50)    
Moisture  
Dew Point 53 °F    
Average Humidity 49    
Maximum Humidity 72    
Minimum Humidity 26    
Precipitation  
Precipitation 0.00 in 0.11 in 2.00 in (1927)
Month to date precipitation 0.28 2.14  
Year to date precipitation 6.04 6.17  
Snow  
Snow 0.00 in 0.00 in 0.00 in ()
Month to date snowfall 0.0 0.1  
Since 1 July snowfall 15.9 33.3  
Snow Depth -    
Sea Level Pressure  
Sea Level Pressure 29.58 in    
Wind  
Wind Speed 19 mph (South)    
Max Wind Speed 36 mph    
Max Gust Speed 45 mph    
Visibility 10 miles    
Events      
T = Trace of Precipitation, MM = Missing Value Source: NWS Daily Summary

Daily Weather History Graph

Daily Weather History Graph

Search for Another Location

Airport or City:

Trip Planner

Search our weather history database for the weather conditions in past years. The results will help you decide how hot, cold, wet, or windy it might be!

Date:

Astronomy

May. 22, 2012 Rise Set
Actual Time 6:12 AM CDT 9:05 PM CDT
Civil Twilight 5:39 AM CDT 9:39 PM CDT
Nautical Twilight 4:56 AM CDT 10:21 PM CDT
Astronomical Twilight 4:07 AM CDT 11:11 PM CDT
Moon 7:23 AM CDT (5/22) 10:45 PM CDT (5/22)
Length of Visible Light 16h 00m
Length of Day
14h 53m
Waxing Crescent, 3% of the Moon is Illuminated
May 22
Waxing Crescent
May 28
First Quarter
Jun 4
Full
Jun 11
Last Quarter
Jun 19
New

Hourly Weather History & Observations

Time (CDT) Temp. Heat Index Dew Point Humidity Pressure Visibility Wind Dir Wind Speed Gust Speed Precip Events Conditions
12:52 AM 66.0 °F - 48.9 °F 54% 29.89 in 10.0 mi South 16.1 mph 23.0 mph N/A   Clear
1:52 AM 64.0 °F - 48.0 °F 56% 29.87 in 10.0 mi South 13.8 mph 20.7 mph N/A   Clear
2:52 AM 62.1 °F - 48.0 °F 60% 29.85 in 10.0 mi SSW 4.6 mph - N/A   Clear
3:52 AM 62.6 °F - 48.2 °F 59% 29.87 in 10.0 mi South 12.7 mph - N/A   Clear
4:52 AM 60.1 °F - 48.9 °F 67% 29.79 in 10.0 mi South 6.9 mph - N/A   Clear
5:52 AM 57.9 °F - 48.9 °F 72% 29.77 in 10.0 mi South 6.9 mph - N/A   Clear
7:52 AM 63.0 °F - 53.1 °F 70% 29.73 in 10.0 mi SSW 16.1 mph 24.2 mph N/A   Clear
8:52 AM 68.0 °F - 55.9 °F 65% 29.70 in 10.0 mi SSW 16.1 mph 26.5 mph N/A   Clear
9:52 AM 73.0 °F - 57.0 °F 57% 29.67 in 10.0 mi SSW 19.6 mph 27.6 mph N/A   Clear
10:52 AM 77.0 °F - 57.0 °F 50% 29.64 in 10.0 mi South 20.7 mph 26.5 mph N/A   Clear
11:52 AM 82.0 °F 81.7 °F 57.0 °F 42% 29.60 in 10.0 mi South 20.7 mph 28.8 mph N/A   Clear
12:52 PM 86.0 °F 85.4 °F 59.0 °F 40% 29.56 in 10.0 mi South 23.0 mph 33.4 mph N/A   Clear
1:52 PM 89.1 °F 88.0 °F 57.9 °F 35% 29.52 in 10.0 mi South 25.3 mph 38.0 mph N/A   Clear
2:52 PM 91.0 °F 89.7 °F 57.0 °F 32% 29.49 in 10.0 mi South 31.1 mph 39.1 mph N/A   Clear
3:52 PM 93.9 °F 91.4 °F 53.1 °F 25% 29.45 in 10.0 mi SSW 31.1 mph 44.9 mph N/A   Clear
4:52 PM 93.0 °F 90.8 °F 54.0 °F 27% 29.43 in 10.0 mi South 26.5 mph 39.1 mph N/A   Clear
5:52 PM 91.0 °F - 52.0 °F 26% 29.40 in 10.0 mi South 26.5 mph 38.0 mph N/A   Clear
6:52 PM 91.0 °F 88.5 °F 53.1 °F 27% 29.37 in 10.0 mi South 27.6 mph 34.5 mph N/A   Clear
7:52 PM 88.0 °F - 48.9 °F 26% 29.35 in 10.0 mi South 26.5 mph 36.8 mph N/A   Clear
8:52 PM 84.9 °F - 50.0 °F 30% 29.35 in 10.0 mi South 25.3 mph 34.5 mph N/A   Clear
9:52 PM 82.9 °F - 51.1 °F 33% 29.35 in 10.0 mi South 19.6 mph 31.1 mph N/A   Clear
10:52 PM 81.0 °F 80.5 °F 54.0 °F 39% 29.37 in 10.0 mi South 21.9 mph 33.4 mph N/A   Clear
11:40 PM 80.6 °F 80.3 °F 53.6 °F 39% 29.50 in 10.0 mi West 11.5 mph 21.9 mph N/A   Clear
11:52 PM 80.1 °F 80.0 °F 54.0 °F 40% 29.41 in 10.0 mi SW 16.1 mph 24.2 mph N/A   Clear